Location: Bruchhof
(51.8738°N, 9.9256°E)
Time: 08:22:58
(UTC+00:00)

IDEFIX/ARIANE 42P - Pass Details

Date: 15 June 2024
Orbit: 782 x 800 km, 98.5° (Epoch: 22 July)

Event Time Altitude Azimuth Distance (km) Brightness Sun altitude
Rises 00:02:42 0° 24° (NNE) 3,319 7.5 -14.2°
Reaches altitude 10° 00:05:32 10° 38° (NE) 2,382 6.1 -14.2°
Maximum altitude 00:09:41 23° 91° (E) 1,628 4.3 -14.0°
Drops below altitude 10° 00:13:49 10° 143° (SE) 2,359 4.6 -13.9°
Enters shadow 00:14:13 - 146° (SE) 2,478 4.7 -13.9°
